Temp_Advection
nan nan nan nan nan nan nan nan nan nan nan nan nan nan nan nan nan nan nan nan nan nan nan nan nan nan nan nan nan nan nan nan nan nan nan nan nan nan nan nan nan nan nan nan nan nan nan nan nan nan nan nan nan nan nan nan nan nan nan nan nan nan nan
nan -0 -0 -0 -0 -0 -0 -0 -0 -0 -0 0 -0 -0 -0 -0 -0 -0 -0 -0 -0 -0 -1 -0 -0 -0 -0 -0 -0 -0 -0 -0 -0 -0 0 0 0 -0 1 1 1 0 -3 -5 -1 1 -0 0 1 0 0 0 -1 -1 -1 -1 -1 -0 -0 -0 -0 -0 nan
nan -0 -0 -0 -0 -0 -0 -0 -0 -0 -0 0 0 0 -0 -0 -0 -0 -0 -0 -0 -0 -0 -1 -0 -0 -0 -0 0 0 0 0 -0 -0 -0 0 0 -0 0 1 0 0 -1 -4 -3 -0 -1 -1 0 0 0 0 0 -0 -1 -1 -1 -0 -0 -0 -0 -0 nan
nan -0 -0 -0 -0 -0 -0 -0 -0 -0 -0 -0 0 0 0 0 0 -0 -0 -0 -0 -0 -0 -1 -0 -0 -1 -1 -0 -0 0 0 0 0 0 -0 0 -0 -0 0 0 0 0 -2 -3 -1 -0 -1 -1 -0 -0 -0 -0 -0 -0 -1 -1 -1 -0 -0 -0 -0 nan
nan -0 -0 -0 -0 -0 -0 -0 0 -0 -0 -0 -0 0 0 0 0 0 0 -0 -0 -0 -0 -0 -0 -0 -1 -1 -1 -1 -0 -0 -0 0 0 0 0 0 -0 -0 0 0 0 -0 -2 -2 -1 -1 -1 -1 -0 -0 -1 -1 -1 -0 -0 -0 -1 -1 -0 -0 nan
nan -0 -0 -0 -0 -0 0 -0 -0 -0 0 0 -0 -0 -0 -0 -0 0 0 0 0 0 -0 -0 -0 -0 -0 -1 -1 -0 -1 -1 -0 -0 -0 0 0 0 -0 -0 0 0 0 0 -1 -1 -1 -1 -1 -1 -1 -0 -0 -1 -1 -1 -1 -0 -0 -1 -1 -0 nan
nan -0 -0 -0 -0 -0 -0 -0 -0 -0 -0 -0 -0 -0 -0 -0 -0 -0 0 0 0 1 0 0 0 -0 -0 -0 -1 -0 -0 -1 -1 -1 -0 -0 -0 -0 -0 -0 0 0 0 0 -0 -1 -1 -1 -0 -1 -1 -1 -0 -1 -1 -1 -2 -1 -1 -0 -1 -1 nan
nan -0 -0 -0 -0 -0 -0 -0 -0 -0 -0 -0 -1 -0 -1 -1 -0 -0 -0 0 1 1 1 0 0 0 -0 -0 -0 -0 -0 -1 -1 -1 -1 -0 -0 -0 -0 -0 -0 -0 0 -0 -0 -0 -1 -1 -0 -0 -1 -0 -0 -1 -0 0 -1 -2 -2 -1 -0 -1 nan
nan -0 -0 -0 -0 -0 -0 -0 -0 -0 -0 -0 -1 -0 -0 -1 -0 -1 -1 -0 0 1 1 1 1 1 0 0 0 0 -0 -1 -1 -1 -1 -0 -0 -0 -1 -1 -0 -0 -0 -0 -1 -1 -1 -1 -1 -0 -0 -1 -0 -0 -1 -0 0 -0 -1 -1 -0 -0 nan
nan -0 -0 -0 -0 -0 -0 -0 0 -0 -0 -0 -0 -0 -1 -1 -0 -0 -1 -1 -1 -1 -0 0 1 1 1 1 1 1 1 -0 -0 -0 -0 -0 -0 -0 -0 -1 -1 -0 -0 -0 -1 -1 -1 -1 -1 -0 0 -1 -1 -0 -0 -1 -0 -0 -1 -1 -1 -0 nan
nan -0 -0 -0 -0 0 0 0 0 0 0 0 0 -0 -0 -1 -0 -0 -0 -1 -1 -1 -1 -2 -1 0 1 1 1 1 1 1 0 0 -0 -0 0 0 0 -0 -1 -1 -1 -0 -1 -0 -0 -1 -1 -0 0 -0 -1 -0 -0 -0 -0 -0 -0 -1 -1 -1 nan
nan 0 0 0 0 0 0 0 0 0 0 1 1 0 -0 -0 -0 -0 0 0 -0 -1 -1 -1 -1 -1 -0 -0 -0 -0 0 1 1 1 0 -0 0 0 0 0 -0 -1 -1 -1 -1 -1 -0 -0 -1 -0 -0 -0 -0 -0 -0 -0 0 0 0 0 -1 -1 nan
nan 0 0 0 0 0 0 0 0 0 0 1 1 1 0 0 0 0 0 1 0 -0 -0 -0 -1 -1 0 -0 -1 -1 -1 0 1 1 1 0 0 0 0 0 0 -0 -0 -0 -0 -1 -1 -0 -0 -0 -1 -0 0 0 -1 -1 -1 0 0 0 0 -1 nan
nan 0 0 -0 -0 -0 0 0 0 0 0 1 1 1 1 0 0 1 1 1 1 1 1 0 0 0 1 1 0 -1 -2 -1 -0 0 1 1 0 0 0 0 -0 -0 -0 0 0 -1 -1 -0 -0 -1 -0 -0 0 0 0 -1 -2 -1 -0 1 1 0 nan
nan 0 0 -0 -0 -0 0 0 -0 0 0 0 1 1 0 0 0 0 1 0 1 1 1 1 1 1 1 1 1 0 -1 -1 -1 -0 0 0 0 0 0 0 -0 -0 -0 0 0 0 0 -0 -1 -1 0 0 0 0 0 -1 -3 -2 -0 0 0 0 nan
nan -0 -0 -0 -0 -0 0 0 0 -0 0 0 0 0 -0 -0 -0 -0 -0 0 0 1 1 2 2 1 1 1 1 1 0 -0 -1 -1 -1 -0 0 -0 -0 0 0 0 -0 -0 0 1 1 0 -1 -1 -0 1 1 0 -0 -1 -2 -1 -0 -0 -1 -1 nan
nan -0 -0 -0 -0 -1 -0 0 0 -0 0 0 -0 -0 -1 -1 -1 -1 -0 -0 0 0 0 1 1 1 0 1 1 1 1 0 -0 -1 -1 -1 -1 -0 -0 0 1 0 -0 0 1 1 1 0 -0 -1 -1 -0 0 0 -0 -0 -1 -1 -0 0 -1 -2 nan
nan -0 -0 -0 -0 -1 -1 0 1 0 -0 0 -0 -0 -1 -1 -1 -1 -1 -0 0 0 0 1 1 1 -0 -0 0 0 0 0 -0 -1 -0 -0 -1 -1 -0 0 1 -0 -0 -0 1 1 0 0 0 -0 -1 -1 -0 0 0 0 -0 -1 -0 0 -0 -1 nan
nan -0 -0 -0 -0 -0 -0 -0 0 0 -0 -0 0 -0 -0 -1 -1 -2 -1 -1 -1 0 1 1 1 1 0 -0 -0 0 -0 0 -0 -1 -1 -0 -1 -1 -1 0 0 -0 -0 -0 0 0 0 -0 -0 -0 -0 -0 -0 -0 1 0 -0 -0 -0 -0 0 -0 nan
nan -0 -0 0 -0 0 0 -0 0 0 -0 -0 0 0 -0 -0 -1 -2 -1 -1 -1 -1 -0 1 1 2 1 1 0 0 -0 -0 0 -0 -0 -0 -1 -1 -1 0 0 -1 -1 -1 0 0 0 -0 -0 -0 0 1 0 0 0 0 -0 -0 -0 -0 -0 -0 nan
nan -1 -0 0 0 0 0 0 0 1 0 -0 0 0 0 -0 -0 -1 -2 -1 -0 -1 -1 0 1 2 2 1 0 0 0 0 0 1 0 -0 -1 -1 -0 1 0 -1 -2 -2 -1 -0 -0 -0 -0 -0 0 1 1 0 0 0 0 -0 -0 -0 -1 -0 nan
nan -1 -0 0 0 0 0 1 1 1 1 0 0 0 0 -0 0 1 -1 -2 -1 0 0 -0 0 1 1 1 0 -0 0 0 0 1 0 -0 -0 -0 0 1 1 0 -1 -1 -1 -1 -1 -1 -1 -0 0 0 0 0 0 0 0 0 -0 -0 -1 -1 nan
nan -1 -1 -0 0 0 1 1 1 1 1 1 0 0 0 0 0 1 0 -1 -1 0 1 0 0 1 1 1 0 -0 0 0 0 0 0 0 -0 -0 -0 0 0 -0 -0 -0 -1 -1 -1 -1 -1 -0 -0 0 0 0 -0 -0 0 0 0 0 -0 -1 nan
nan -1 -1 -1 -1 0 1 1 1 1 1 1 1 0 0 0 1 1 0 -0 -1 -0 1 1 1 0 0 1 1 1 0 -0 -0 0 1 1 -0 -0 -0 0 -0 -0 0 -0 -0 -1 -1 -1 -1 -0 0 0 -0 -0 -0 -0 0 0 0 0 -0 -0 nan
nan -1 -1 -2 -2 -1 0 0 1 1 1 1 1 0 0 0 1 1 0 0 0 0 1 1 0 0 -0 0 1 1 0 -0 -0 0 1 1 0 0 0 0 0 -0 -0 -0 -1 -1 -1 -1 -0 0 0 -0 -0 -1 -0 -0 0 0 0 -0 -0 -0 nan
nan -1 -1 -1 -2 -2 -1 0 0 1 1 1 0 0 1 1 1 1 1 0 0 1 1 0 0 -0 -1 -0 0 1 1 0 1 1 1 1 0 0 0 0 0 0 -0 -0 -1 -1 -1 -1 -0 -0 0 -0 -1 -0 -0 0 -0 -0 0 0 -0 -1 nan
nan -0 -1 -1 -1 -2 -2 -1 0 0 0 0 0 0 1 1 1 0 0 0 0 1 1 1 0 -0 -0 -0 -0 0 0 1 1 1 1 0 0 0 0 0 0 0 -0 -0 -0 -0 -1 -1 -1 -0 -0 -0 -0 -1 0 1 0 -1 -0 0 0 -1 nan
nan -0 -0 -1 -2 -2 -3 -1 1 0 -1 -1 -1 -1 -0 1 1 0 -0 -0 -0 -0 0 1 0 0 1 1 0 -0 0 1 1 1 1 0 0 0 0 0 0 0 -0 -0 -0 -0 -1 -1 -0 -0 -0 -0 -0 -1 0 1 0 -1 -1 0 0 -1 nan
nan 0 -0 -1 -1 -1 -3 -3 0 1 -0 -1 -1 -1 -1 -0 0 -0 -0 -1 -1 -1 -2 -1 -0 0 1 1 1 1 0 1 1 1 0 0 0 0 0 0 0 0 -0 -0 -0 -1 -1 -1 -0 -0 -0 -0 -1 -0 1 1 1 -0 -0 0 -0 -1 nan
nan 0 0 -1 -1 0 -1 -3 -1 1 0 -1 -0 0 -0 -0 0 0 -0 0 0 -1 -2 -3 -2 -1 0 1 1 1 0 1 1 0 0 0 0 1 0 0 0 0 0 0 -0 -0 -0 -0 -1 -1 -0 -0 -1 -0 1 1 1 0 0 -0 -0 -1 nan
nan 1 1 -0 -1 -0 1 -0 -0 0 0 -0 -0 0 0 -0 0 0 0 1 1 -0 -2 -3 -2 -1 -1 -0 -0 0 1 1 0 0 0 0 0 1 0 0 0 0 0 -0 -0 -0 -0 -0 -0 -0 -0 -0 -0 -0 0 1 1 0 0 0 0 -0 nan
nan 1 1 1 -0 -1 -0 1 1 0 -0 -0 -0 0 0 0 0 -0 -0 1 1 -0 -1 -1 -1 -1 -1 -1 -1 -0 1 1 0 -0 0 0 0 0 0 0 0 0 0 -0 -0 -0 -0 -0 -0 -0 -0 0 0 -0 0 1 1 1 0 0 0 -0 nan
nan 1 0 1 1 -0 -1 0 1 1 0 -0 -0 0 1 0 0 -0 -0 0 0 -1 -1 0 -0 -1 -1 -1 -1 -0 0 0 0 -0 -0 -0 -0 -0 -0 1 1 0 0 -0 -0 0 -0 -0 0 -0 -0 0 0 0 0 0 1 1 0 0 0 -0 nan
nan 1 0 -0 0 1 0 0 1 1 0 0 0 0 1 1 0 -0 0 1 0 -1 -1 -0 -1 -1 -1 -0 -1 -0 0 -0 -0 0 0 -0 -0 -0 -0 0 1 0 -0 0 0 0 -0 -0 0 0 -0 -0 0 1 0 0 0 0 0 0 0 0 nan
nan 1 1 -0 -0 0 1 1 1 1 0 0 0 0 1 1 -0 -0 1 1 1 1 0 -0 -1 -1 -1 -0 -0 -0 0 -0 -0 -0 0 -0 -0 -0 -0 0 0 0 0 0 0 0 0 0 -0 -0 0 0 0 0 0 0 0 0 0 0 0 0 nan
nan nan nan nan nan nan nan nan nan nan nan nan nan nan nan nan nan nan nan nan nan nan nan nan nan nan nan nan nan nan nan nan nan nan nan nan nan nan nan nan nan nan nan nan nan nan nan nan nan nan nan nan nan nan nan nan nan nan nan nan nan nan nan
Wind_Speed
4 5 6 7 9 10 12 13 14 15 16 17 17 18 18 18 19 19 19 19 20 20 21 21 21 22 23 22 22 22 22 22 22 22 22 21 23 23 22 23 26 31 37 37 33 33 34 33 33 33 32 31 30 28 26 26 25 23 22 21 21 21 21
5 6 7 9 11 12 14 15 16 17 18 18 19 19 19 20 20 20 20 20 21 22 22 23 23 23 24 23 23 23 23 24 23 23 23 22 23 24 24 24 25 29 34 38 36 34 35 34 33 33 31 29 28 27 26 25 25 24 23 23 22 21 21
6 7 9 11 13 14 16 17 18 19 20 21 21 21 21 21 21 22 22 22 22 23 23 24 24 24 25 25 24 24 23 24 24 24 24 23 23 24 25 24 25 27 31 36 38 36 36 35 34 33 31 30 29 28 27 26 25 25 24 24 24 24 22
7 9 11 12 14 16 17 19 20 21 22 22 23 23 23 24 24 24 24 24 24 24 24 25 25 25 26 26 26 25 24 24 24 24 24 24 24 25 25 25 25 26 29 33 37 37 36 35 34 33 32 30 30 30 28 28 26 26 25 25 25 25 24
9 11 12 14 16 17 19 20 21 22 23 23 24 25 25 25 26 26 26 25 25 25 25 26 26 26 26 27 27 27 26 26 25 25 25 25 25 25 26 26 26 27 28 31 34 37 36 35 34 33 31 29 29 30 30 28 27 27 27 27 26 26 26
11 12 14 15 17 18 20 21 22 23 24 25 26 26 27 27 27 27 27 27 27 26 27 27 27 27 27 27 28 28 28 27 27 27 27 27 27 27 27 27 27 27 28 30 32 34 35 34 33 32 31 28 26 28 29 28 27 26 26 27 27 27 27
12 14 15 17 18 19 21 22 23 25 26 26 27 28 28 29 29 29 29 29 28 28 28 28 28 28 28 28 29 29 29 29 29 29 28 28 28 28 29 28 28 28 28 29 31 32 32 33 31 29 29 27 24 24 25 25 26 25 23 23 24 24 24
14 15 16 18 19 20 22 23 24 26 27 27 28 28 29 29 30 31 31 31 30 29 28 28 28 28 28 29 29 29 30 30 30 31 31 29 29 29 29 30 30 29 29 29 30 30 30 30 30 29 27 25 23 23 23 22 23 23 21 21 21 20 19
15 16 17 19 20 21 22 24 25 26 27 28 28 29 30 30 31 32 33 33 33 32 31 29 28 28 28 28 28 29 30 30 31 31 32 31 30 29 29 30 30 31 31 30 30 30 30 29 29 28 26 25 22 21 22 21 21 21 20 19 19 18 16
16 18 19 20 21 22 23 23 24 25 26 27 28 30 31 32 32 33 34 35 35 35 35 34 32 30 29 28 28 28 29 31 31 31 31 31 31 30 30 30 30 31 31 31 31 30 29 29 29 27 24 24 23 21 21 21 21 21 20 18 18 17 15
17 19 20 21 22 22 23 23 24 25 26 27 28 30 31 32 33 34 34 35 36 36 36 36 36 33 31 29 28 28 29 31 31 32 32 31 31 30 30 29 29 30 30 30 31 31 29 28 28 27 25 24 24 22 21 20 19 20 19 18 17 16 15
18 19 20 21 22 23 23 24 25 26 27 28 28 29 31 32 33 34 34 35 35 36 36 37 37 36 34 31 30 29 30 30 31 32 32 32 32 31 30 29 29 29 30 30 30 31 31 29 28 28 26 25 25 24 23 21 20 19 19 18 17 17 17
19 20 21 22 23 24 24 24 26 27 28 29 29 30 31 32 33 34 34 35 35 35 36 37 37 38 37 34 32 31 30 31 31 32 32 33 33 33 31 30 29 28 29 30 30 31 32 30 28 29 28 25 24 25 25 24 23 22 21 21 20 19 18
20 21 22 23 24 24 25 25 26 28 28 29 30 30 31 32 33 34 34 35 35 36 36 37 37 38 38 36 35 33 31 31 32 33 33 34 34 33 32 31 30 29 29 30 30 31 31 29 27 28 29 26 24 25 26 25 25 25 25 25 23 22 21
21 22 23 24 25 25 25 26 27 28 29 30 30 31 32 33 34 34 35 35 36 36 36 36 37 37 37 37 36 34 33 32 32 34 35 35 35 34 32 31 30 29 29 30 30 30 30 28 26 26 27 25 23 23 24 25 26 26 26 27 27 26 25
22 23 24 24 25 26 26 27 28 29 30 31 31 31 32 33 34 35 35 35 36 36 36 36 36 36 36 36 35 34 33 32 33 34 35 36 36 35 33 32 30 28 29 31 30 30 29 27 25 24 24 23 22 23 25 26 26 25 25 26 27 27 26
23 23 24 25 25 27 27 27 28 29 30 30 31 32 32 33 34 34 35 35 35 35 36 36 36 35 35 35 33 31 30 30 31 33 34 35 35 35 35 33 29 26 28 29 29 28 27 26 24 24 24 23 23 24 27 28 27 26 25 26 27 27 25
24 24 25 25 26 27 28 28 28 29 30 30 30 32 32 33 34 34 35 34 34 34 35 35 35 34 33 33 31 29 28 28 29 30 31 32 33 34 35 33 28 25 26 28 28 28 27 25 24 24 23 23 23 24 25 26 27 26 25 26 27 27 27
25 25 25 25 26 27 28 29 29 29 30 30 30 31 32 33 34 35 35 35 35 35 35 35 34 33 32 31 29 27 26 26 27 28 29 29 30 32 33 32 27 25 24 26 28 28 27 26 25 24 23 22 22 23 24 25 25 24 25 26 27 27 27
25 26 25 26 27 28 28 29 29 29 29 29 30 30 31 32 33 34 35 35 35 36 36 35 34 32 30 29 28 26 25 25 26 27 27 27 28 30 31 29 27 25 24 25 26 27 27 26 25 25 23 21 20 20 22 23 24 23 24 26 27 26 26
26 27 27 27 27 28 28 28 29 29 29 29 30 30 31 32 33 33 34 35 35 36 36 36 34 33 31 29 27 25 25 25 25 26 26 27 27 28 27 26 25 25 24 24 25 26 26 26 25 24 22 20 18 18 20 22 23 23 23 25 26 26 27
27 28 29 28 28 28 28 28 28 29 29 29 29 29 30 31 32 32 33 34 36 36 36 35 35 34 32 29 28 26 25 25 25 25 26 26 25 25 25 24 24 24 24 25 25 25 26 26 25 23 22 21 19 19 20 21 22 22 23 24 25 26 27
28 29 30 29 29 28 28 28 29 29 29 28 28 29 29 30 31 31 31 33 35 36 35 35 35 34 32 30 28 27 25 24 25 26 26 25 24 22 21 22 24 24 24 24 24 25 25 24 23 23 22 22 22 22 22 22 22 22 22 23 24 25 26
28 29 30 31 30 29 28 29 29 30 29 28 29 29 30 29 30 30 31 32 34 34 34 34 34 33 31 29 28 27 26 25 26 26 26 25 23 21 19 20 21 21 21 22 23 23 24 24 22 23 23 23 23 23 23 22 21 21 22 22 23 24 25
28 29 30 31 31 30 29 29 30 30 30 29 29 30 30 30 30 30 30 32 33 33 33 33 32 31 30 29 28 28 27 27 27 27 27 25 23 21 20 19 20 20 20 21 22 23 24 23 22 21 22 23 23 24 23 23 22 22 21 22 23 23 24
29 29 30 31 31 31 31 31 31 31 31 30 30 30 30 30 30 29 29 30 32 32 32 32 31 31 31 30 29 28 28 28 28 29 29 27 25 23 22 21 20 20 21 22 23 23 24 23 21 21 22 23 24 24 23 22 23 22 21 21 22 23 23
28 29 30 31 31 32 32 33 33 33 32 32 32 31 30 30 29 29 28 29 31 31 31 31 31 31 31 30 30 28 28 28 29 30 30 29 27 25 23 22 21 22 22 23 23 24 24 23 22 23 23 24 25 25 24 22 22 23 22 20 20 22 22
29 29 29 30 32 33 34 35 34 33 33 34 34 33 33 33 32 31 30 30 30 30 31 31 31 31 30 30 29 28 28 28 29 29 30 29 27 25 23 22 22 23 23 24 24 24 24 23 23 24 24 25 26 26 24 22 22 22 21 19 19 21 20
30 29 29 31 32 33 34 37 36 33 32 33 34 34 34 34 34 33 32 32 31 31 32 32 32 31 31 30 29 27 27 27 27 28 28 27 25 24 23 23 23 24 23 23 23 24 24 24 25 25 26 26 27 26 24 23 21 20 19 18 19 20 19
31 31 30 32 33 32 33 36 36 33 32 32 33 33 34 34 33 33 32 32 32 32 33 34 34 34 33 32 30 28 27 26 26 26 25 24 23 23 23 23 23 23 22 22 23 24 25 25 26 27 27 27 27 26 25 22 21 19 18 18 19 19 18
32 32 32 32 34 34 34 34 34 33 32 32 33 33 33 34 34 33 31 31 30 32 34 34 35 36 35 33 32 31 29 27 25 25 23 22 22 22 22 22 22 22 22 22 23 24 25 26 26 27 27 27 27 26 25 23 20 19 19 18 18 18 18
35 34 33 33 33 33 34 34 33 33 32 32 33 33 34 34 33 32 31 29 29 32 35 35 36 37 37 34 33 32 30 28 26 25 24 23 22 22 22 22 22 21 21 23 23 24 25 25 26 27 27 27 27 27 26 24 21 19 19 19 18 19 18
36 35 35 35 34 34 34 34 33 33 33 32 32 33 33 33 32 31 30 29 30 33 35 36 37 38 37 35 34 32 30 29 27 26 25 24 24 23 22 22 21 21 22 23 24 24 25 25 25 26 26 26 26 26 26 24 22 20 19 19 19 19 18
38 37 36 36 36 35 34 33 33 32 32 32 32 32 32 32 32 32 31 30 31 33 34 35 37 37 36 35 34 33 31 30 28 26 26 25 25 25 24 23 23 23 24 24 24 24 25 25 25 25 25 26 26 25 25 24 23 20 20 20 20 20 19
42 40 38 38 38 37 34 32 32 32 31 31 32 31 31 31 33 34 33 31 31 32 33 35 36 36 36 36 35 34 33 32 30 29 27 26 26 26 25 25 24 25 25 25 25 26 26 25 25 25 25 25 25 25 25 24 23 21 20 21 21 20 19
44 42 41 40 39 36 33 32 31 31 32 32 32 31 31 32 33 34 34 33 33 32 32 34 35 35 36 36 35 35 34 33 32 31 29 28 28 27 27 27 27 27 27 27 27 28 27 26 26 25 24 25 25 25 25 24 23 22 21 21 21 21 20
Wind_Direction
311 317 318 320 320 320 321 320 319 319 318 318 318 317 316 316 314 313 312 311 310 309 309 308 308 307 306 306 306 305 304 303 302 301 299 298 296 293 288 281 278 279 283 288 289 289 291 293 294 296 298 299 300 300 299 297 296 297 297 298 299 299 300
312 319 320 321 322 321 320 319 317 317 317 316 315 314 314 313 311 310 309 308 308 307 307 307 306 305 304 303 303 302 302 301 299 298 296 294 292 289 288 285 283 282 284 288 291 291 291 291 292 293 294 294 295 295 295 293 293 293 293 295 297 299 300
315 320 322 321 320 319 318 317 316 315 315 314 314 313 312 311 310 309 308 308 308 307 306 305 304 303 302 301 301 299 298 298 296 296 294 292 290 288 288 286 285 285 285 288 291 292 292 292 293 293 293 292 290 289 289 289 290 290 290 291 292 294 296
317 319 320 319 317 316 315 314 314 313 313 312 312 311 311 311 310 310 309 309 308 307 305 304 302 302 300 299 299 297 296 295 294 293 291 290 289 287 287 286 284 284 285 287 289 290 292 293 293 293 293 292 290 288 286 285 285 285 285 286 288 289 291
317 318 318 316 314 314 313 312 312 311 311 311 311 311 310 310 309 309 309 309 308 306 304 303 302 301 300 298 298 297 296 294 292 291 289 288 288 286 285 285 284 283 282 283 285 288 290 292 293 293 293 293 292 290 287 285 283 282 282 282 283 283 286
316 316 315 314 313 312 311 311 311 310 310 310 310 310 310 309 308 308 307 307 306 305 303 302 301 300 298 296 296 296 296 294 293 291 289 288 288 287 286 285 284 282 281 281 283 286 288 290 292 294 293 294 295 293 293 291 287 284 284 283 282 281 282
314 315 314 313 313 312 312 311 310 310 310 310 310 309 309 308 307 307 306 305 305 304 302 301 299 298 296 295 295 295 294 293 292 291 289 289 288 288 287 286 285 283 282 282 283 284 286 288 290 292 293 294 294 293 294 297 295 291 288 288 287 285 284
314 315 314 314 313 312 312 311 311 310 310 310 309 308 307 307 306 306 306 305 303 302 300 298 296 295 294 293 294 293 293 292 291 291 289 288 288 287 287 287 286 285 284 284 285 285 286 287 288 289 291 292 292 292 291 293 296 295 293 292 293 293 291
316 315 314 313 313 311 311 310 310 310 309 309 308 307 306 306 306 305 305 304 303 302 300 298 296 295 294 293 292 291 290 290 289 289 289 288 287 286 285 285 285 286 286 287 287 286 287 288 287 289 291 291 291 291 289 288 290 294 295 292 292 294 294
316 315 314 313 311 310 309 309 309 307 307 307 307 307 307 306 306 305 304 304 303 302 302 300 299 298 297 295 293 289 286 286 286 285 285 286 286 285 284 284 283 284 286 288 288 288 289 289 288 290 292 292 289 288 287 287 288 291 293 291 288 288 288
314 313 311 310 309 309 309 309 309 308 308 308 307 307 306 305 304 303 302 301 301 300 300 300 300 299 298 295 293 288 284 283 282 283 283 282 282 282 282 282 282 282 283 285 286 287 288 287 288 290 290 289 289 288 286 286 286 287 291 293 290 286 283
311 310 309 309 309 310 310 311 311 309 309 308 306 305 303 302 301 300 299 298 298 298 298 299 299 300 299 296 293 290 287 284 283 281 281 281 280 279 278 278 279 281 282 282 283 284 285 286 287 288 287 287 290 290 287 283 280 280 282 285 285 283 281
309 309 309 309 309 310 311 312 310 309 308 306 305 304 302 300 298 297 297 296 296 297 297 298 299 299 299 297 294 292 290 288 286 283 281 279 279 278 278 277 276 277 278 280 281 281 281 284 286 286 286 288 289 287 286 283 278 275 274 275 276 277 277
310 310 310 310 310 311 311 312 309 307 306 305 304 303 300 299 298 297 297 297 297 297 298 298 298 297 297 297 295 294 293 291 289 287 283 280 278 277 277 277 276 275 275 276 277 279 281 282 283 283 285 286 284 282 283 281 278 276 274 272 271 270 270
311 311 311 311 311 312 312 311 309 307 306 304 304 303 300 299 299 298 298 298 298 298 297 296 296 295 295 296 295 295 295 293 290 287 285 283 281 279 278 276 275 275 274 274 274 276 279 281 280 280 282 284 282 280 279 278 276 277 277 276 274 272 271
311 311 312 312 312 312 311 311 309 307 306 305 304 303 301 300 300 299 299 298 298 297 296 295 295 295 295 296 296 296 295 293 290 287 285 285 284 283 281 277 275 274 273 273 273 274 276 279 280 279 279 279 278 275 274 275 277 279 279 279 278 277 277
311 312 313 313 313 311 310 310 308 306 305 305 304 303 302 301 300 299 298 298 297 296 295 295 295 296 296 297 297 297 295 291 287 286 285 286 285 285 282 279 276 273 271 271 273 274 275 278 279 279 278 278 276 274 275 276 277 278 277 275 275 277 278
312 313 314 314 312 310 309 308 308 307 306 305 305 303 302 301 300 299 298 298 297 296 295 294 295 296 297 297 298 297 294 290 287 286 286 286 286 284 282 280 278 273 270 269 270 271 273 274 274 275 276 277 275 274 274 274 274 275 273 272 271 273 275
314 314 314 313 311 310 309 308 308 307 306 305 305 303 302 301 299 299 299 298 298 297 295 295 295 296 297 298 298 297 293 289 288 287 287 286 285 283 282 282 281 275 269 267 268 271 273 273 273 274 274 275 274 273 272 272 272 272 270 270 269 270 271
314 313 312 311 310 309 308 308 307 307 306 305 304 303 302 300 299 299 299 299 298 297 297 296 296 297 297 297 296 294 291 288 286 286 286 285 283 283 284 285 284 279 273 269 268 271 273 274 275 276 275 274 271 270 270 270 271 269 267 267 267 267 266
312 310 309 309 308 307 307 307 307 307 306 306 305 304 302 300 299 299 298 298 297 296 296 297 297 297 296 296 295 293 290 287 284 282 283 283 283 284 286 285 282 280 278 275 273 274 275 276 277 278 277 275 271 268 267 268 269 269 267 266 266 266 265
310 308 307 307 308 307 308 308 307 306 306 306 306 304 302 300 299 298 296 296 296 295 295 296 296 296 296 296 296 294 291 287 283 280 280 283 286 286 284 280 277 275 275 276 277 277 277 279 281 282 281 280 278 274 271 269 269 270 269 268 268 267 266
308 307 307 308 309 309 310 309 307 307 307 308 307 305 303 301 298 296 293 292 292 293 293 294 293 293 294 294 293 292 291 286 282 279 280 283 288 289 285 279 276 275 276 277 277 277 278 279 280 281 281 281 281 279 276 275 273 273 271 269 268 268 267
307 307 308 309 310 311 310 309 308 308 309 310 308 306 305 303 299 296 292 290 290 290 290 290 291 291 292 292 290 288 287 284 280 278 278 281 286 289 286 282 281 280 280 278 276 276 277 277 278 278 279 279 279 279 278 278 278 275 273 270 268 266 266
308 309 309 311 311 312 311 310 309 310 311 311 309 307 306 304 301 297 292 289 288 288 287 288 289 291 292 291 288 285 282 281 280 278 276 278 281 283 283 283 283 283 281 279 278 277 277 277 277 277 277 277 277 278 279 281 281 278 275 272 269 267 265
310 310 311 311 312 312 312 311 310 311 312 310 307 306 305 303 300 297 293 290 288 287 287 287 288 289 290 290 288 285 282 280 279 277 275 276 278 279 280 279 279 280 280 280 280 279 278 278 277 275 274 275 277 278 280 282 282 280 277 274 271 268 266
310 311 312 311 311 311 311 311 311 312 311 308 306 306 306 304 301 299 294 290 288 286 286 286 286 286 287 287 287 286 283 280 278 276 275 276 277 278 278 278 278 279 280 281 281 280 279 277 276 274 274 275 277 278 280 282 282 281 279 277 272 268 266
309 311 312 310 310 311 310 309 310 311 310 309 309 309 308 306 305 303 299 294 291 289 287 286 285 284 284 284 284 284 283 281 279 277 276 276 277 278 278 278 279 279 280 282 282 281 278 277 275 275 274 275 276 277 279 281 281 280 279 277 272 267 266
309 310 310 308 308 309 308 308 310 312 311 310 309 308 307 306 306 304 302 299 297 294 291 289 287 285 284 284 284 283 282 281 280 279 278 279 279 278 277 277 278 279 280 282 282 280 279 277 276 275 275 276 277 278 279 281 280 279 277 274 271 268 265
308 308 308 307 307 308 307 308 310 311 309 307 306 304 303 303 302 301 299 297 295 292 289 289 288 287 286 287 287 285 284 283 282 282 281 280 278 276 275 275 275 277 279 280 279 278 278 277 277 277 277 278 279 279 280 280 278 274 271 268 267 266 263
306 306 307 306 307 308 308 308 308 308 306 304 303 301 300 300 299 298 297 294 290 285 284 284 285 285 286 287 288 288 287 286 285 284 283 280 275 272 271 272 274 276 279 278 277 277 277 277 278 278 279 279 279 280 279 277 274 268 265 263 263 263 262
305 306 306 307 307 308 307 307 306 304 303 302 301 299 298 298 298 297 296 292 285 280 280 281 281 282 285 286 287 289 290 289 287 285 284 282 277 273 271 272 274 276 277 276 277 278 278 279 279 279 279 279 278 278 277 275 271 265 260 258 257 259 260
305 306 307 308 308 307 306 306 304 302 301 301 299 298 297 297 297 296 294 290 284 280 279 279 278 280 283 286 287 289 290 289 286 284 283 281 279 275 273 273 274 275 275 276 278 279 280 281 281 281 279 278 277 276 275 274 270 263 256 253 253 255 257
306 308 309 309 308 308 307 306 303 300 299 299 298 297 297 297 295 293 291 288 284 281 280 279 279 280 283 285 287 289 289 288 286 284 281 278 277 276 274 273 272 272 273 276 278 280 281 283 283 283 281 278 276 274 273 271 268 262 255 251 251 253 255
308 309 310 309 308 309 309 306 302 300 299 298 297 297 297 296 294 292 291 288 284 281 280 278 279 280 282 284 286 287 288 288 287 285 282 279 276 275 273 271 270 270 272 275 277 279 281 282 284 284 282 279 276 273 271 270 267 262 256 252 251 251 254
308 309 309 309 309 310 310 306 303 301 299 298 298 298 297 294 293 292 292 290 287 283 281 279 278 278 279 281 282 284 285 286 286 286 284 280 277 274 272 270 269 270 271 273 275 277 279 281 282 284 282 278 274 272 271 269 266 261 256 252 249 250 252
Height
1453 1453 1454 1454 1455 1455 1455 1455 1455 1455 1455 1454 1454 1454 1453 1453 1453 1453 1453 1452 1451 1451 1450 1449 1448 1446 1445 1444 1443 1442 1440 1439 1438 1436 1436 1435 1434 1434 1434 1433 1431 1427 1421 1420 1422 1422 1421 1422 1421 1421 1421 1420 1419 1419 1419 1417 1416 1414 1413 1412 1411 1410 1409
1451 1451 1452 1452 1453 1453 1453 1453 1453 1453 1452 1452 1452 1452 1452 1452 1451 1451 1450 1449 1448 1447 1446 1445 1445 1444 1442 1441 1440 1439 1437 1436 1435 1434 1433 1433 1432 1431 1431 1430 1428 1426 1421 1417 1417 1419 1418 1419 1419 1418 1418 1418 1417 1416 1416 1415 1414 1412 1411 1410 1409 1408 1408
1449 1449 1450 1451 1451 1451 1451 1451 1451 1451 1450 1450 1450 1450 1449 1449 1448 1448 1447 1446 1445 1444 1443 1442 1442 1441 1440 1438 1437 1436 1435 1433 1432 1431 1430 1430 1430 1429 1428 1428 1426 1424 1420 1416 1414 1415 1415 1415 1416 1416 1416 1415 1414 1413 1413 1412 1411 1410 1409 1408 1407 1406 1406
1447 1447 1448 1449 1449 1449 1449 1449 1449 1448 1448 1448 1447 1447 1446 1445 1445 1444 1443 1442 1442 1441 1440 1439 1439 1438 1436 1435 1434 1433 1432 1431 1430 1429 1428 1427 1427 1426 1425 1424 1424 1422 1420 1416 1412 1412 1412 1412 1412 1412 1413 1412 1411 1410 1409 1408 1408 1407 1406 1405 1405 1404 1404
1445 1445 1445 1446 1447 1447 1447 1447 1447 1446 1445 1445 1444 1444 1443 1442 1441 1440 1439 1439 1438 1438 1437 1436 1435 1434 1433 1432 1430 1429 1429 1428 1427 1426 1425 1424 1423 1422 1421 1421 1420 1419 1418 1415 1411 1409 1410 1410 1410 1409 1409 1409 1408 1406 1405 1405 1404 1404 1403 1402 1402 1401 1401
1443 1442 1443 1443 1444 1444 1444 1444 1444 1443 1442 1442 1441 1440 1439 1438 1438 1437 1436 1436 1435 1434 1433 1432 1432 1431 1430 1429 1427 1426 1425 1424 1423 1422 1421 1421 1420 1419 1418 1417 1417 1416 1415 1413 1411 1408 1407 1407 1407 1407 1406 1406 1405 1402 1401 1400 1400 1401 1400 1399 1399 1399 1398
1440 1440 1440 1441 1441 1441 1442 1441 1441 1440 1439 1438 1438 1437 1436 1435 1434 1434 1433 1432 1432 1431 1430 1429 1429 1427 1426 1425 1424 1422 1421 1420 1419 1418 1417 1417 1416 1415 1414 1413 1413 1412 1411 1410 1408 1407 1406 1405 1405 1404 1403 1403 1402 1400 1399 1397 1396 1396 1397 1396 1396 1396 1395
1438 1437 1437 1438 1438 1438 1439 1438 1438 1437 1436 1435 1434 1434 1432 1432 1431 1430 1429 1428 1428 1428 1427 1426 1426 1425 1423 1422 1420 1419 1418 1416 1415 1414 1413 1413 1413 1411 1410 1409 1409 1408 1407 1407 1405 1404 1404 1403 1402 1401 1400 1400 1399 1398 1397 1395 1394 1393 1394 1394 1393 1393 1393
1435 1434 1435 1435 1435 1436 1436 1436 1435 1434 1433 1432 1431 1430 1429 1428 1427 1425 1424 1424 1423 1423 1423 1423 1422 1421 1420 1418 1417 1416 1414 1413 1412 1411 1410 1409 1409 1408 1407 1406 1405 1404 1403 1403 1402 1401 1401 1400 1399 1398 1397 1396 1396 1395 1393 1393 1392 1391 1391 1392 1391 1391 1391
1432 1432 1432 1432 1433 1433 1433 1433 1432 1431 1430 1429 1427 1426 1424 1423 1422 1421 1420 1420 1419 1418 1418 1418 1418 1417 1416 1415 1414 1413 1412 1410 1409 1408 1407 1406 1405 1404 1403 1402 1402 1401 1400 1399 1398 1398 1398 1397 1395 1395 1395 1393 1392 1392 1391 1390 1390 1389 1389 1389 1389 1389 1389
1430 1429 1430 1430 1431 1431 1431 1430 1429 1427 1426 1425 1423 1422 1421 1420 1419 1418 1417 1416 1415 1414 1413 1412 1412 1412 1412 1412 1411 1410 1409 1407 1406 1404 1403 1403 1402 1401 1400 1399 1398 1397 1397 1396 1395 1394 1394 1393 1392 1392 1392 1390 1389 1389 1389 1388 1388 1387 1387 1387 1387 1387 1387
1428 1428 1428 1428 1428 1428 1427 1427 1425 1424 1422 1422 1421 1420 1418 1417 1416 1415 1414 1413 1412 1410 1409 1408 1407 1406 1406 1407 1406 1406 1405 1403 1402 1401 1400 1399 1398 1397 1397 1396 1395 1394 1393 1393 1392 1391 1390 1390 1389 1389 1388 1388 1387 1386 1386 1386 1386 1385 1385 1384 1384 1384 1385
1426 1426 1426 1425 1425 1425 1424 1423 1422 1421 1420 1419 1418 1417 1415 1414 1413 1411 1410 1409 1408 1406 1405 1404 1402 1401 1400 1401 1401 1401 1400 1399 1398 1397 1395 1394 1393 1393 1393 1393 1392 1392 1391 1390 1389 1387 1387 1387 1387 1385 1384 1385 1385 1383 1382 1382 1382 1383 1382 1382 1382 1382 1382
1424 1423 1423 1423 1422 1421 1421 1420 1419 1418 1417 1416 1415 1413 1412 1410 1409 1408 1406 1405 1404 1402 1401 1400 1398 1397 1395 1395 1395 1395 1395 1395 1393 1392 1390 1389 1388 1388 1388 1388 1389 1389 1388 1387 1386 1384 1383 1384 1384 1382 1381 1382 1382 1380 1379 1379 1379 1379 1379 1379 1379 1379 1378
1421 1421 1420 1420 1419 1418 1418 1417 1416 1414 1413 1412 1411 1410 1408 1407 1405 1404 1402 1401 1400 1398 1397 1396 1394 1393 1391 1391 1390 1390 1390 1389 1388 1387 1385 1384 1383 1383 1384 1384 1385 1385 1385 1383 1383 1381 1380 1380 1380 1380 1378 1378 1378 1377 1376 1375 1375 1376 1376 1375 1375 1375 1375
1418 1418 1417 1417 1415 1414 1414 1414 1413 1411 1410 1409 1408 1407 1405 1403 1401 1399 1398 1397 1396 1395 1393 1392 1390 1389 1388 1387 1386 1386 1385 1384 1383 1381 1380 1379 1378 1378 1379 1380 1381 1381 1380 1379 1379 1378 1377 1376 1376 1376 1376 1376 1375 1374 1373 1372 1372 1373 1373 1372 1371 1371 1371
1416 1415 1414 1413 1412 1411 1411 1410 1410 1409 1407 1406 1405 1403 1401 1399 1397 1396 1394 1393 1392 1390 1389 1387 1386 1385 1384 1383 1382 1382 1381 1380 1378 1377 1376 1374 1373 1373 1373 1374 1377 1377 1376 1375 1375 1374 1374 1373 1373 1373 1372 1373 1372 1371 1369 1369 1369 1369 1370 1369 1368 1367 1368
1412 1412 1411 1410 1409 1408 1408 1408 1407 1406 1404 1403 1402 1399 1397 1395 1393 1391 1390 1389 1388 1386 1384 1383 1382 1381 1380 1379 1378 1378 1377 1376 1374 1373 1372 1371 1370 1369 1368 1369 1372 1373 1373 1372 1371 1370 1370 1370 1370 1369 1369 1369 1369 1368 1367 1366 1365 1366 1366 1365 1365 1365 1365
1409 1408 1408 1407 1406 1406 1405 1404 1404 1403 1401 1400 1398 1396 1393 1391 1389 1387 1386 1384 1383 1381 1380 1379 1378 1377 1376 1375 1374 1374 1373 1372 1371 1369 1368 1368 1366 1365 1364 1365 1367 1368 1368 1368 1367 1366 1366 1366 1366 1366 1366 1366 1365 1364 1364 1363 1362 1362 1362 1362 1362 1362 1362
1405 1405 1405 1405 1404 1403 1403 1401 1400 1399 1398 1396 1394 1392 1389 1387 1384 1382 1381 1379 1378 1376 1375 1374 1374 1374 1373 1372 1371 1370 1369 1368 1367 1366 1365 1364 1363 1362 1361 1362 1363 1363 1364 1364 1363 1363 1362 1362 1362 1362 1362 1362 1362 1361 1361 1360 1359 1359 1359 1358 1358 1359 1359
1402 1402 1402 1402 1402 1401 1400 1399 1397 1395 1394 1392 1390 1388 1385 1383 1381 1379 1376 1375 1373 1372 1370 1370 1369 1369 1369 1368 1367 1366 1366 1365 1364 1363 1362 1361 1361 1360 1359 1359 1359 1359 1359 1359 1359 1359 1359 1358 1359 1359 1359 1359 1359 1358 1358 1357 1356 1355 1355 1355 1355 1355 1355
1400 1399 1399 1399 1399 1398 1397 1395 1393 1392 1390 1388 1386 1384 1382 1379 1377 1375 1373 1371 1369 1368 1367 1366 1365 1364 1364 1364 1363 1363 1362 1361 1361 1360 1359 1358 1358 1357 1357 1356 1356 1355 1355 1355 1355 1355 1355 1355 1355 1355 1355 1355 1355 1355 1354 1353 1353 1353 1352 1352 1351 1351 1351
1397 1396 1395 1395 1395 1394 1393 1392 1390 1388 1386 1385 1382 1380 1378 1375 1373 1371 1370 1368 1366 1364 1363 1362 1361 1360 1360 1360 1359 1359 1358 1358 1357 1356 1356 1355 1355 1354 1353 1353 1352 1352 1352 1352 1351 1351 1351 1352 1352 1352 1352 1352 1351 1351 1350 1350 1350 1350 1349 1349 1348 1348 1348
1394 1392 1391 1391 1390 1390 1389 1388 1386 1384 1382 1381 1378 1375 1373 1372 1369 1368 1366 1365 1363 1362 1360 1359 1357 1357 1356 1356 1356 1355 1355 1354 1353 1353 1352 1352 1352 1351 1351 1350 1349 1349 1349 1348 1348 1348 1348 1348 1349 1348 1348 1348 1347 1347 1347 1347 1346 1346 1345 1345 1345 1344 1344
1390 1389 1388 1386 1385 1385 1385 1383 1382 1380 1378 1376 1374 1371 1370 1368 1366 1364 1363 1361 1360 1358 1357 1355 1354 1353 1352 1352 1352 1351 1351 1350 1350 1349 1349 1349 1349 1348 1348 1347 1347 1346 1346 1345 1344 1345 1344 1344 1345 1345 1345 1344 1344 1343 1343 1343 1343 1342 1342 1341 1341 1341 1341
1387 1386 1384 1383 1381 1380 1379 1378 1377 1375 1374 1372 1370 1368 1366 1364 1362 1361 1359 1358 1356 1354 1353 1351 1350 1349 1348 1348 1347 1347 1347 1346 1346 1346 1345 1345 1346 1346 1345 1345 1344 1343 1343 1342 1341 1341 1341 1341 1342 1342 1341 1341 1340 1340 1340 1340 1339 1338 1338 1338 1337 1337 1337
1384 1383 1381 1379 1377 1376 1374 1373 1372 1371 1369 1367 1365 1364 1362 1360 1358 1357 1355 1354 1352 1351 1349 1348 1346 1345 1345 1344 1343 1343 1343 1342 1342 1342 1342 1342 1342 1342 1342 1342 1341 1340 1339 1339 1338 1338 1337 1338 1338 1338 1337 1337 1336 1336 1336 1336 1335 1334 1335 1335 1334 1333 1334
1381 1380 1378 1375 1373 1372 1370 1368 1368 1366 1364 1362 1360 1358 1357 1355 1353 1352 1351 1349 1348 1346 1345 1343 1342 1341 1341 1340 1339 1339 1339 1339 1338 1338 1338 1339 1339 1339 1339 1338 1338 1337 1336 1335 1335 1334 1334 1334 1334 1334 1333 1333 1332 1332 1333 1333 1332 1331 1331 1331 1331 1330 1331
1377 1376 1374 1372 1370 1368 1366 1364 1363 1362 1359 1357 1355 1353 1352 1350 1348 1347 1345 1344 1343 1341 1339 1338 1337 1337 1336 1336 1336 1335 1335 1335 1335 1335 1335 1335 1335 1335 1335 1335 1334 1333 1333 1332 1332 1331 1330 1330 1330 1330 1330 1329 1329 1329 1330 1329 1328 1328 1328 1328 1327 1327 1328
1373 1372 1371 1368 1367 1365 1362 1359 1358 1357 1355 1353 1351 1350 1348 1346 1344 1343 1341 1340 1338 1337 1335 1333 1332 1331 1331 1331 1331 1331 1331 1332 1331 1331 1331 1332 1332 1331 1331 1331 1330 1330 1330 1329 1328 1327 1327 1326 1326 1326 1326 1325 1325 1325 1326 1326 1325 1325 1325 1325 1324 1324 1325
1369 1368 1367 1365 1362 1361 1358 1355 1353 1352 1350 1349 1347 1345 1343 1341 1340 1339 1337 1336 1335 1332 1330 1329 1328 1326 1326 1327 1327 1327 1327 1328 1328 1328 1328 1328 1328 1327 1327 1327 1327 1327 1326 1325 1324 1324 1323 1323 1322 1322 1321 1321 1321 1321 1322 1322 1322 1322 1322 1322 1322 1322 1322
1365 1364 1363 1361 1359 1356 1354 1351 1349 1347 1346 1344 1342 1340 1339 1337 1335 1334 1333 1332 1331 1328 1325 1325 1324 1322 1322 1323 1323 1323 1323 1324 1324 1324 1324 1323 1323 1323 1323 1323 1323 1323 1322 1321 1320 1320 1319 1319 1319 1318 1318 1318 1317 1317 1317 1318 1318 1319 1319 1319 1319 1319 1319
1361 1359 1358 1356 1354 1352 1349 1347 1345 1343 1341 1339 1338 1336 1334 1332 1330 1329 1329 1328 1326 1323 1321 1321 1320 1319 1318 1319 1319 1319 1319 1319 1319 1320 1320 1319 1319 1319 1319 1320 1319 1319 1318 1317 1317 1317 1316 1315 1315 1315 1314 1314 1313 1313 1314 1314 1315 1315 1316 1316 1316 1316 1317
1355 1354 1352 1350 1348 1346 1345 1342 1340 1338 1336 1335 1333 1331 1330 1327 1325 1324 1324 1323 1321 1319 1317 1317 1316 1315 1315 1315 1315 1315 1315 1315 1315 1315 1315 1315 1315 1315 1315 1316 1315 1315 1314 1314 1314 1313 1312 1312 1312 1311 1310 1310 1310 1310 1310 1310 1311 1312 1312 1313 1313 1314 1314
1348 1347 1346 1344 1342 1341 1340 1338 1335 1333 1332 1330 1328 1327 1325 1323 1320 1319 1319 1318 1317 1316 1314 1313 1312 1311 1311 1311 1310 1310 1310 1310 1310 1311 1311 1311 1311 1311 1311 1311 1311 1311 1311 1310 1310 1309 1309 1308 1308 1307 1307 1307 1306 1306 1306 1306 1307 1308 1309 1310 1310 1311 1312
1341 1340 1339 1338 1337 1336 1335 1332 1330 1329 1327 1325 1324 1323 1321 1318 1316 1314 1313 1312 1312 1311 1310 1309 1308 1308 1307 1307 1306 1306 1306 1306 1306 1306 1306 1306 1306 1306 1306 1306 1307 1307 1307 1306 1306 1305 1305 1305 1304 1304 1304 1303 1302 1302 1303 1303 1304 1304 1305 1306 1307 1308 1309